Location: Prairie Dale
(45.6972°N, 104.5033°W)
Time: 20:35:38
(UTC+00:00)

DX 1 - Pass Details

Date: 04 July 2022
Orbit: 616 x 630 km, 98.4° (Epoch: 13 August)

Event Time Altitude Azimuth Distance (km) Brightness Sun altitude
Rises 04:05:13 0° 16° (NNE) 2,930 ? -10.5°
Reaches altitude 10° 04:07:27 10° 18° (NNE) 2,017 ? -10.8°
Maximum altitude 04:11:49 69° 102° (ESE) 673 ? -11.2°
Drops below altitude 10° 04:16:09 10° 187° (S) 1,994 ? -11.7°
Enters shadow 04:16:48 - 188° (S) 2,260 ? -11.8°
